1st Responders/1st Detectors/Storm Spotters Weather Summary for Powell County, KY

Forecast Maps


Reg. NEXRAD Animation


National Fire Danger: Day 1 & 2 Map

Current NWS Watch/Warnings

SPC Convective Day 1 Outlook


Day 2 Outlook

(Click images to enlarge|Page will refresh every 5 minutes)
UK Ag. Weather Center Desktop Severe Weather Service[HERE]
Powell County, KY Hazardous Weather Outlook Webcast
(9 AM to 9 PM Mon-Fri)
[Fast]
[Dial-up]


UKAWC 1st Detectors/1st Responders Precision Weather Forecast For POWELL County, Kentucky
(based on the NWS County Digital Forecast)

ISSUED AT 20:00 UTC ON FRIDAY NOV 22 2019
DAY FRIDAY
EDT 3HR 5P 6P 7P
MAX/MIN -- -- 52°
TEMP 45° 43° 43°
SKY COVER 77% 75% 67%
Clouds
DEW PT 40° 38° 38°
RH 82% 82% 82%
POP 12HR -- -- --
RAIN/SNOW (liq.equ) -- -- --
SNOWFALL -- -- --
WIND SPEED(MPH) 1 1 1
WIND Gust(MPH) 9 9 9
WIND DIR N N NE
DEW Hvy Dew Hvy Dew Hvy Dew
HeatIndex 45 43 43
Rain -- -- --
Rain Showers -- -- --
WIND CHILL -- -- --
SPRAY COND
DRY COND
LIVESTOCK COLDSTRESS



DAY SATURDAY SUNDAY MONDAY TUESDAY WEDNESDAY THURSDAY
EDT 6HR 8P 9P 10P 11P MIDN 1A 2A 3A 4A 5A 6A 7A 8A 9A 10A 11A NOON 1P 2P 3P 4P 5P 6P 7P 8P 9P 10P 11P MIDN 1A 2A 3A 4A 5A 8A 11A 2P 5P 8P 2A 8A 2P 8P 2A 8A 2P 8P 2A 8A 2P 8P 2A 8A 2P 8P
MAX/MIN -- -- -- -- -- -- -- -- -- -- -- -- 34° -- -- -- -- -- -- -- -- -- -- 54° -- -- -- -- -- -- -- -- -- -- 31° -- -- 49° -- -- 29° 58° -- -- 34° 61° -- -- 38° 54° -- -- 32° 50° --
TEMP 41° 40° 38° 36° 36° 34° 34° 34° 36° 36° 36° 36° 38° 40° 43° 43° 47° 49° 50° 52° 54° 54° 50° 47° 45° 43° 41° 40° 38° 38° 36° 34° 34° 34° 31° 40° 47° 49° 38° 31° 31° 54° 45° 36° 36° 59° 54° 47° 38° 50° 43° 36° 34° 47° 41°
SKY COVER 72% 70% 66% 70% 68% 69% 66% 68% 74% 81% 85% 93% 98% 99% 99% 100% 100% 100% 100% 100% 100% 100% 100% 100% 100% 100% 100% 100% 91% 90% 89% 89% 88% 88% 64% 44% 37% 44% 40% 37% 44% 17% 29% 34% 47% 60% 66% 75% 68% 43% 44% 52% 56% 66% 78%
Clouds
DEW PT 36° 36° 36° 36° 36° 34° 34° 34° 36° 36° 36° 36° 38° 40° 43° 41° 43° 45° 47° 47° 47° 47° 47° 45° 43° 40° 38° 38° 36° 36° 34° 34° 34° 34° 31° 34° 32° 32° 34° 31° 31° 38° 38° 36° 36° 43° 43° 47° 38° 34° 36° 34° 31° 34° 38°
RH 78% 85% 89% 95% 100% 99% 99% 100% 100% 99% 100% 99% 100% 100% 99% 92% 89% 88% 85% 82% 80% 79% 85% 89% 92% 92% 88% 92% 92% 92% 96% 99% 96% 99% 99% 79% 57% 52% 81% 100% 99% 54% 76% 100% 99% 55% 69% 95% 99% 54% 73% 92% 92% 60% 88%
POP 12HR 100% -- -- -- -- -- -- -- -- -- -- -- 36% -- -- -- -- -- -- -- -- -- -- -- 86% -- -- -- -- -- -- -- -- -- 45% -- -- -- 2% -- 0% -- 2% -- 10% -- 29% -- 48% -- 37% -- 17% -- 30%
RAIN/SNOW (liq.equ) 0.00in -- -- -- -- -- 0.00in -- -- -- -- -- 0.00in -- -- -- -- -- 0.23in -- -- -- -- -- 0.09in -- -- -- -- -- 0.01in -- -- -- 0.00in -- 0.00in -- 0.00in 0.00in 0.00in -- -- -- -- -- -- -- -- -- -- -- -- -- --
SNOWFALL 0in -- -- -- -- -- 0in -- -- -- -- -- 0in -- -- -- -- -- 0in -- -- -- -- -- 0in -- -- -- -- -- 0in -- -- -- 0in -- 0in -- 0in 0in 0in -- -- -- -- -- -- -- -- -- -- -- -- -- --
WIND SPEED(MPH) 1 1 2 2 5 5 5 2 1 1 1 1 1 1 1 1 1 2 2 2 2 5 6 7 8 9 9 9 9 9 9 8 8 7 6 7 7 7 6 5 5 7 6 6 5 8 14 15 10 8 5 5 5 5 5
WIND DIR NE NE NE NE E E E E E E E E E E E E E E E SE SW W W W W W W W W W W W W W W W W W SW SW SW SW SW SW S S S S W W W N N W NE
HeatIndex 41 40 36 34 32 31 31 32 36 36 36 36 38 40 43 43 47 49 50 52 54 54 50 47 40 37 36 33 32 31 28 27 27 27 26 35 47 49 34 27 26 54 45 32 32 59 54 47 30 50 41 33 29 47 39
Rain -- -- -- -- -- -- -- Slight Chance Slight Chance Chance Chance Chance Chance Chance Likely Likely Definite Definite Definite Definite Definite Likely Likely Chance Chance Chance Chance Slight Chance Slight Chance Slight Chance -- -- -- -- -- -- -- -- -- -- -- -- -- -- -- -- -- -- -- -- -- -- -- -- --
Rain Showers -- -- -- -- -- -- -- -- -- -- -- -- -- -- -- -- -- -- -- -- -- -- -- -- -- -- -- -- -- -- -- -- -- -- -- -- -- -- -- -- -- -- -- -- -- Slight Chance Chance Chance Chance Slight Chance -- -- Slight Chance Chance Chance
WIND CHILL -- -- -- -- 32° 30° 30° -- -- -- -- -- -- -- -- -- -- -- -- -- -- -- -- -- 41° 38° 35° 34° 32° 32° 29° 27° 27° 28° 25° 35° -- -- 34° 26° 26° -- 42° 31° 32° -- -- -- 31° -- 40° 32° 30° -- 38°
SPRAY COND
DRY COND
LIVESTOCK COLDSTRESS

Click on individual weather variable above in left-hand column (ie., TEMP, RH, QPF 12HR) to view state forecast maps






NWS 48 Hr. Forecast Maps,

Regional Hourly Observations For POWELL County, Kentucky
Issued at 400 PM EST FRI NOV 22 2019
NORTHEAST KENTUCKY
  
CITY           SKY/WX    TMP DP  RH WIND       PRES   REMARKS
LEXINGTON      CLOUDY    45  36  70 NE7       30.09R                  
COVINGTON      PTSUNNY   45  32  60 N8        30.09R                  
FRANKFORT      CLOUDY    45  36  70 N5        30.09R                  


Current NOWCAST not available:
Nowcasts are not issued routinely during fair weather. Only when
precipitation or other significant weather is occuring in this county will these
forecasts be issued. Currently, there is no short term forecast in effect.


Fire Weather Forecast For POWELL County, KY
Provided by the National Weather Service:

Issued at: Fri Nov 22 16:05:01 EST 2019

611 AM EST Fri Nov 22 2019

                      Today        Tonight      Sat          

Cloud Cover           Mcldy        Pcldy        Cloudy       
Chance precip (%)     100          20           90           
Precip type           rain         rain         rain         
Temp (24H TREND)      52 (-8)      30 (-18)     56           
Rh % (24H TREND)      54 (+10)     100 (+6)     75           
20ftwnd-AM(mph)       NW 6-10 G22               Lgt/Var      
20ftwnd-PM(mph)       N 3-7 G14    Lgt/Var      S 2-6 G21    
Precip duration       4            1            5            
Precip begin          7 AM                      Continuing   
Precip end            4 PM                      Continuing   
Precip amount         0.28         0.00         0.41         
LAL                   1            1            1            
Haines Index (MID)    3                         3            
Mixing hgt(ft-AGL)    2300                      400          
Transport wnd (mph)   N  7                      SE  8        
Vent rate (kt-ft)     13758                     3004         
ADI Early             26 Fair      4 Very Poor  8 Poor       
ADI Late              26 Fair      6 Very Poor  9 Poor       
Max LVORI Early       6            7            7            
Max LVORI Late        4            9            6            

Remarks...None.


SPC's Fire Weather Web Tool (Excellent!), SPC's Fire Weather Outlooks, NWS Fire Weather WEB, Fire Danger Class Map,
Keetch-Byram Drought Index, ROMAN Web, Haines Index ,
WFAS's 10-hr Dead Fuel Moist., WFAS's 100-hr Dead Fuel Moist., Probablity of Ignition, Visual blackness Map, Palmer Drought Index, HPC's Rainfall Forecast Maps


Hazardous Weather Outlook For POWELL County, Kentucky
336 PM EST Fri Nov 22 2019

 DAY ONE  Tonight.

No hazardous weather is expected at this time.

 DAYS TWO THROUGH SEVEN  Saturday through Thursday.

Isolated thunderstorms are possible Saturday afternoon for areas
mainly along and south of the Hal Rogers Parkway.

 SPOTTER INFORMATION STATEMENT  

Spotter activation is not anticipated.

Latest POWELL County, Kentucky Watches, Warnings and Advisories.
Additional Drought Info.: UKAWC Drought Page, Kentucky Drought Watch


7-Day Forecast For POWELL County, KY

TONIGHT
Mostly cloudy. A 20 percent chance of rain showers near dawn. Lows in the upper 30s. Light winds.

SATURDAY
A chance of rain showers early, then rain showers. Highs in the mid 50s. Light winds. Chance of rain 90 percent.

SATURDAY NIGHT
Cloudy. A 50 percent chance of rain showers in the evening. Lows in the mid 30s. West winds around 10 mph in the evening becoming light.

SUNDAY
Mostly sunny. Highs around 50. Light winds.

SUNDAY NIGHT
Partly cloudy. Lows in the lower 30s. Light winds.

MONDAY
Mostly sunny. Highs in the upper 50s.

MONDAY NIGHT
Partly cloudy. Lows in the upper 30s.

TUESDAY
Partly sunny with a 40 percent chance of rain showers. Highs in the lower 60s.

TUESDAY NIGHT
Cloudy with a 50 percent chance of showers. Lows in the mid 40s.

WEDNESDAY
Partly sunny with a 40 percent chance of showers. Highs in the mid 50s.

WEDNESDAY NIGHT
Mostly cloudy. Lows in the mid 30s.

THANKSGIVING DAY
Partly sunny. Highs in the lower 50s.

THURSDAY NIGHT
Mostly cloudy with a 30 percent chance of rain showers. Lows in the mid 30s.

FRIDAY
Mostly cloudy with a 40 percent chance of rain showers. Highs in the lower 50s.

Ag Weather Center, Department of Biosystems & Agricultural Engineering, University of Kentucky